User: anonymous   Login
Location: Cactus School
(34.5700°N, 118.0931°W)
Time: 03:13:01
(UTC-08:00)
Language:

N. Korean satellite - Orbit

View from above orbital plane
View from above orbital plane
View from above satellite
View from above satellite

Ground track
Ground track

The orbit data is extracted from the following two-line orbital elements,

1 39026U 12072A   17326.65839325  .00002707  00000-0  10551-3 0  9993
2 39026  97.2172 339.0859 0039256 338.1887  21.7678 15.26101951274151
Epoch (UTC): 22 November 2017 15:48:05
Eccentricity: 0.0039256
inclination: 97.2172°
perigee height: 460 km
apogee height: 514 km
right ascension of ascending node: 339.0859°
argument of perigee: 338.1887°
revolutions per day: 15.26101951
mean anomaly at epoch: 21.7678°
orbit number at epoch: 27415

The dashed part of the orbit path shows where the satellite is in the earth's shadow,  

DLR